Weather History for Greenwood, SC

Change the Weather History Date:

Wednesday, April 11, 2012

  Actual Average (KAND) Record (KAND)
Temperature  
Mean Temperature 54 °F -  
Max Temperature 66 °F 73 °F 87 °F (1977)
Min Temperature 42 °F 46 °F 30 °F (1960)
Degree Days  
Heating Degree Days 11    
Growing Degree Days 4 (Base 50)    
Moisture  
Dew Point 28 °F    
Average Humidity 38    
Maximum Humidity 76    
Minimum Humidity 19    
Precipitation  
Precipitation 0.00 in - - ()
Sea Level Pressure  
Sea Level Pressure 30.02 in    
Wind  
Wind Speed 7 mph (NW)    
Max Wind Speed 13 mph    
Max Gust Speed 20 mph    
Visibility 10 miles    
Events Rain    
Averages and records for this station are not official NWS values.
T = Trace of Precipitation, MM = Missing Value Source: NWS Daily Summary

Daily Weather History Graph

Daily Weather History Graph

Search for Another Location

Airport:

Trip Planner

Search our weather history database for the weather conditions in past years. The results will help you decide how hot, cold, wet, or windy it might be!

Date:

Astronomy

Apr. 11, 2012 Rise Set
Actual Time 7:01 AM EDT 7:57 PM EDT
Civil Twilight 6:36 AM EDT 8:23 PM EDT
Nautical Twilight 6:06 AM EDT 8:53 PM EDT
Astronomical Twilight 5:34 AM EDT 9:25 PM EDT
Moon 12:41 AM EDT (4/11) 10:58 AM EDT (4/11)
Length of Visible Light 13h 46m
Length of Day
12h 55m
Waning Gibbous, 69% of the Moon is Illuminated
Apr 11
Waning Gibbous
Apr 13
Last Quarter
Apr 21
New
Apr 29
First Quarter
May 5
Full

Hourly Weather History & Observations

Time (EDT) Temp. Windchill Dew Point Humidity Pressure Visibility Wind Dir Wind Speed Gust Speed Precip Events Conditions
12:56 AM 60.1 °F - 37.9 °F 44% 29.94 in 10.0 mi WNW 8.1 mph - N/A   Clear
1:56 AM 57.9 °F - 36.0 °F 44% 29.94 in 10.0 mi West 8.1 mph - N/A   Clear
2:56 AM 55.0 °F - 35.1 °F 47% 29.94 in 10.0 mi West 5.8 mph - N/A   Clear
3:56 AM 53.1 °F - 34.0 °F 48% 29.94 in 10.0 mi West 4.6 mph - N/A   Clear
4:56 AM 50.0 °F - 34.0 °F 54% 29.96 in 10.0 mi WSW 3.5 mph - N/A   Clear
5:56 AM 42.1 °F 40.2 °F 35.1 °F 76% 29.99 in 10.0 mi North 3.5 mph - N/A   Clear
6:56 AM 43.0 °F 40.3 °F 32.0 °F 65% 30.02 in 10.0 mi North 4.6 mph - N/A   Clear
7:56 AM 46.9 °F - 30.0 °F 52% 30.06 in 10.0 mi North 3.5 mph - N/A   Clear
9:56 AM 55.0 °F - 25.0 °F 31% 30.08 in 10.0 mi NNE 11.5 mph - 0.00 in Rain Light Rain
10:56 AM 57.0 °F - 23.0 °F 27% 30.09 in 10.0 mi Variable 5.8 mph - 0.00 in   Clear
11:56 AM 59.0 °F - 24.1 °F 26% 30.06 in 10.0 mi WNW 9.2 mph - 0.00 in Rain Light Rain
12:56 PM 59.0 °F - 21.9 °F 24% 30.04 in 10.0 mi Calm Calm - 0.00 in Rain Light Rain
1:56 PM 63.0 °F - 24.1 °F 23% 30.02 in 10.0 mi West 12.7 mph 19.6 mph 0.00 in Rain Light Rain
3:56 PM 64.9 °F - 21.0 °F 19% 29.99 in 10.0 mi NNW 8.1 mph - 0.00 in   Clear
4:56 PM 66.0 °F - 25.0 °F 21% 29.98 in 10.0 mi WNW 8.1 mph - 0.00 in   Clear
5:56 PM 66.9 °F - 23.0 °F 19% 29.98 in 10.0 mi West 9.2 mph 17.3 mph 0.00 in   Clear
6:56 PM 64.9 °F - 23.0 °F 20% 29.99 in 10.0 mi West 5.8 mph - N/A   Clear
7:56 PM 55.9 °F - 32.0 °F 40% 30.00 in 10.0 mi Calm Calm - N/A   Clear
8:56 PM 55.0 °F - 30.0 °F 38% 30.06 in 10.0 mi NNE 4.6 mph - N/A   Clear
9:56 PM 54.0 °F - 26.1 °F 34% 30.09 in 10.0 mi NNE 9.2 mph - N/A   Clear
10:56 PM 53.1 °F - 27.0 °F 37% 30.12 in 10.0 mi NNE 10.4 mph 17.3 mph N/A   Clear
11:56 PM 50.0 °F - 27.0 °F 41% 30.14 in 10.0 mi NE 6.9 mph - N/A   Clear